Emporia, KS

3:27 PM CDT on March 28, 2017 (GMT -0500)
Emporia Municipal

Weather History for KEMP - June, 2013

Change the Weather History Date:

Saturday, June 8, 2013

  Actual Average Record
Temperature  
Mean Temperature 69 °F 72 °F  
Max Temperature 81 °F 82 °F 93 °F (2011)
Min Temperature 56 °F 61 °F 48 °F (2003)
Degree Days  
Heating Degree Days 0 0  
Month to date heating degree days 12 5  
Since 1 June heating degree days 12 5  
Since 1 July heating degree days 4994 4816  
Cooling Degree Days 4 7  
Month to date cooling degree days 12 51  
Year to date cooling degree days 128 170  
Since 1 June cooling degree days 12 51  
Growing Degree Days 19 (Base 50)    
Moisture  
Dew Point 57 °F    
Average Humidity 68    
Maximum Humidity 87    
Minimum Humidity 48    
Precipitation  
Precipitation 0.57 in 0.20 in 1.69 in (2005)
Month to date precipitation 0.72 1.68  
Year to date precipitation 13.29 14.36  
Sea Level Pressure  
Sea Level Pressure 29.84 in    
Wind  
Wind Speed 14 mph (South)    
Max Wind Speed 28 mph    
Max Gust Speed 38 mph    
Visibility 9 miles    
Events Rain , Thunderstorm    
T = Trace of Precipitation, MM = Missing Value Source: NWS Daily Summary

Daily Weather History Graph

Daily Weather History Graph

Search for Another Location

Airport or City:

Trip Planner

Search our weather history database for the weather conditions in past years. The results will help you decide how hot, cold, wet, or windy it might be!

Date:

Astronomy

Jun. 08, 2013 Rise Set
Actual Time 6:00 AM CDT 8:47 PM CDT
Civil Twilight 5:29 AM CDT 9:18 PM CDT
Nautical Twilight 4:50 AM CDT 9:57 PM CDT
Astronomical Twilight 4:05 AM CDT 10:42 PM CDT
Moon 6:08 AM CDT (6/8) 8:51 PM CDT (6/8)
Length of Visible Light 15h 48m
Length of Day
14h 46m
New Moon, 0% of the Moon is Illuminated
Jun 8
New Moon
Jun 16
First Quarter
Jun 23
Full
Jun 29
Last Quarter
Jul 8
New

Hourly Weather History & Observations

Time (CDT) Temp. Heat Index Dew Point Humidity Pressure Visibility Wind Dir Wind Speed Gust Speed Precip Events Conditions
12:53 AM 57.9 °F - 51.1 °F 78% 29.92 in 10.0 mi SSE 5.8 mph - N/A   Clear
1:53 AM 57.9 °F - 50.0 °F 75% 29.91 in 10.0 mi SSE 4.6 mph - N/A   Clear
2:53 AM 57.0 °F - 50.0 °F 77% 29.88 in 10.0 mi SE 8.1 mph - N/A   Clear
3:53 AM 57.9 °F - 51.1 °F 78% 29.90 in 10.0 mi South 9.2 mph - N/A   Clear
4:53 AM 57.9 °F - 52.0 °F 81% 29.89 in 10.0 mi South 11.5 mph - N/A   Mostly Cloudy
5:53 AM 57.0 °F - 52.0 °F 83% 29.88 in 10.0 mi SSE 8.1 mph - N/A   Partly Cloudy
6:53 AM 59.0 °F - 53.1 °F 81% 29.88 in 10.0 mi SSE 9.2 mph - N/A   Overcast
7:53 AM 61.0 °F - 54.0 °F 78% 29.90 in 10.0 mi South 9.2 mph - N/A   Overcast
8:53 AM 66.0 °F - 54.0 °F 65% 29.89 in 10.0 mi South 13.8 mph 24.2 mph N/A   Clear
9:53 AM 69.1 °F - 54.0 °F 58% 29.88 in 10.0 mi South 17.3 mph 24.2 mph N/A   Mostly Cloudy
10:53 AM 71.1 °F - 55.0 °F 57% 29.86 in 10.0 mi South 15.0 mph 26.5 mph N/A   Partly Cloudy
11:53 AM 73.9 °F - 57.0 °F 55% 29.84 in 10.0 mi South 21.9 mph 32.2 mph N/A   Clear
12:53 PM 78.1 °F - 59.0 °F 52% 29.81 in 10.0 mi South 23.0 mph 32.2 mph N/A   Clear
1:53 PM 79.0 °F - 57.9 °F 48% 29.79 in 10.0 mi South 26.5 mph 34.5 mph N/A   Clear
2:53 PM 81.0 °F 81.6 °F 60.1 °F 49% 29.78 in 10.0 mi South 20.7 mph 28.8 mph N/A   Clear
3:53 PM 81.0 °F 81.3 °F 59.0 °F 47% 29.77 in 10.0 mi South 25.3 mph 32.2 mph N/A   Partly Cloudy
4:53 PM 80.1 °F 80.7 °F 59.0 °F 48% 29.77 in 10.0 mi South 20.7 mph 31.1 mph N/A   Clear
5:53 PM 79.0 °F - 57.9 °F 48% 29.74 in 10.0 mi South 23.0 mph 33.4 mph N/A   Clear
6:53 PM 75.9 °F - 57.9 °F 54% 29.75 in 10.0 mi South 12.7 mph 23.0 mph N/A   Clear
7:53 PM 73.9 °F - 59.0 °F 59% 29.81 in 10.0 mi South 10.4 mph - N/A   Mostly Cloudy
8:53 PM 72.0 °F - 60.1 °F 66% 29.81 in 10.0 mi SW 8.1 mph - 0.00 in   Overcast
9:02 PM 73.4 °F - 60.8 °F 65% 29.84 in 10.0 mi SW 9.2 mph - N/A Thunderstorm Overcast
9:34 PM 64.4 °F - 60.8 °F 88% 29.87 in 5.0 mi NNW 4.6 mph - 0.07 in Rain Heavy Rain
9:53 PM 64.9 °F - 62.1 °F 90% 29.86 in 2.5 mi South 8.1 mph - 0.22 in Rain , Thunderstorm Heavy Rain
9:56 PM 64.4 °F - 62.6 °F 94% 29.86 in 1.8 mi South 15.0 mph 23.0 mph 0.08 in Rain , Thunderstorm Heavy Rain
10:05 PM 64.4 °F - 62.6 °F 94% 29.85 in 3.0 mi SSE 13.8 mph 24.2 mph 0.19 in Rain , Thunderstorm Heavy Rain
10:15 PM 66.2 °F - 62.6 °F 88% 29.85 in 10.0 mi South 13.8 mph - 0.19 in Rain , Thunderstorm Light Rain
10:34 PM 66.2 °F - 62.6 °F 88% 29.84 in 10.0 mi SSE 11.5 mph - 0.22 in Rain Light Rain
10:53 PM 66.0 °F - 62.1 °F 87% 29.81 in 8.0 mi SE 16.1 mph - 0.27 in Rain Rain
11:53 PM 64.9 °F - 61.0 °F 87% 29.83 in 10.0 mi South 8.1 mph - 0.07 in Rain Light Rain